Home   Weather   Lustenau   Past weeks

Flag for Austria Past Weather in Lustenau, Vorarlberg, Austria — Yesterday and Last 2 Weeks

Now
63 °F

Light rain. Broken clouds.


Feels Like: 63 °F
Forecast: 59 / 80 °F
Wind: 7 mph from West

Location: Saint Gallen-Altenrhein

Current Time: Jul 28, 2017 at 8:51:40 am

Latest Report: Jul 28, 2017 at 8:20 am


Visibility: 5 mi

Pressure: 29.98 "Hg

Humidity: 94%

Dew Point: 61 °F

Location of LustenauLocation

Past Weather in Lustenau — Graph

°F

Lustenau Temperature Yesterday

Maximum temperature yesterday: 70 °F (at 3:20 pm)
Minimum temperature yesterday: 59 °F (at 11:50 am)
Average temperature yesterday: 64 °F

High & Low Weather Summary for the Past Weeks

 TemperatureHumidityPressure
High86 °F (Jul 18, 4:50 pm)100% (Jul 14, 9:50 pm)30.30 "Hg (Jul 14, 9:50 pm)
Low52 °F (Jul 16, 4:50 am)35% (Jul 18, 5:20 pm)29.80 "Hg (Jul 21, 8:50 pm)
Average66 °F72%30.02 "Hg
* Reported Jul 13 7:20 am — Jul 28 7:50 am, Lustenau. Weather by CustomWeather, © 2017

Note: Actual official high and low records may vary slightly from our data, if they occured in-between our weather recording intervals... More about our weather records

Advertising

Lustenau Weather History for the Previous 24 Hours

Scroll right to see more
 ConditionsComfort  
Time TempWeatherWind HumidityBarometerVisibility
7:50 am
Fri, Jul 28
61 °FLight rain. Broken clouds.3 mph94%29.98 "Hg6 mi
7:20 am63 °FLight rain. Broken clouds.7 mph88%29.95 "Hg6 mi
6:50 am63 °FBroken clouds.3 mph88%29.95 "HgN/A
6:20 am63 °FBroken clouds.3 mph88%29.92 "HgN/A
5:50 am64 °FOvercast.3 mph78%29.92 "HgN/A
5:20 am63 °FPassing clouds.3 mph83%29.92 "HgN/A
4:50 am64 °FOvercast.2 mph78%29.95 "HgN/A
4:20 am66 °FOvercast.2 mph73%29.95 "HgN/A
3:50 am66 °FPassing clouds.5 mph73%29.95 "HgN/A
3:20 am66 °FOvercast.7 mph73%29.95 "HgN/A
2:50 am64 °FPassing clouds.7 mph78%29.95 "HgN/A
2:20 am64 °FLight rain. Passing clouds.13 mph83%29.92 "HgN/A
1:50 am64 °FRain. Fog.15 mph94%29.92 "Hg2 mi
1:20 am63 °FPartly cloudy.1 mph100%29.89 "HgN/A
12:50 am63 °FLight rain. Passing clouds.3 mph94%29.89 "HgN/A
12:20 am63 °FMostly cloudy.3 mph94%29.89 "HgN/A
11:50 pm
Thu, Jul 27
63 °FMostly cloudy.3 mph94%29.89 "HgN/A
11:20 pm63 °FPassing clouds.3 mph100%29.89 "HgN/A
10:50 pm63 °FMostly cloudy.2 mph94%29.89 "HgN/A
10:20 pm64 °FPassing clouds.1 mph94%29.89 "HgN/A
9:50 pm64 °FPassing clouds.1 mph94%29.89 "HgN/A
9:20 pm64 °FFog.2 mph94%29.89 "Hg2 mi
8:50 pm64 °FLight rain. Broken clouds.3 mph94%29.89 "HgN/A
8:20 pm66 °FScattered clouds.5 mph83%29.86 "HgN/A
7:50 pm66 °FScattered clouds.5 mph83%29.86 "HgN/A
7:20 pm68 °FScattered clouds.5 mph73%29.89 "HgN/A
6:50 pm68 °FScattered clouds.5 mph73%29.89 "HgN/A
6:20 pm70 °FPassing clouds.5 mph69%29.89 "HgN/A
5:50 pm70 °FPassing clouds.5 mph69%29.89 "HgN/A
5:20 pm70 °FPassing clouds.5 mph60%29.89 "HgN/A
4:50 pm70 °FPassing clouds.5 mph60%29.89 "HgN/A
4:20 pm70 °FPartly sunny.5 mph64%29.92 "HgN/A
3:50 pm70 °FPartly sunny.5 mph69%29.92 "HgN/A
3:20 pm70 °FPartly sunny.3 mph64%29.92 "HgN/A
2:50 pm68 °FPartly sunny.3 mph64%29.92 "HgN/A
2:20 pm66 °FPartly sunny.3 mph68%29.95 "HgN/A
1:50 pm66 °FPartly sunny.3 mph73%29.95 "HgN/A
1:20 pm63 °FPartly sunny.6 mph73%29.95 "HgN/A
12:50 pm61 °FPartly sunny.7 mph83%29.95 "HgN/A
12:20 pm59 °FSprinkles. Overcast.5 mph94%29.98 "Hg3 mi
11:50 am59 °FSprinkles. Overcast.3 mph88%29.98 "Hg3 mi
11:20 am61 °FSprinkles. Partly sunny.5 mph83%29.98 "HgN/A
10:50 am63 °FPartly sunny.3 mph77%29.98 "HgN/A
10:20 am61 °FLight rain. Partly sunny.2 mph77%29.98 "HgN/A
9:50 am63 °FScattered showers. Partly sunny.3 mph73%29.95 "HgN/A
9:20 am61 °FPartly sunny.3 mph77%29.95 "HgN/A
8:50 am61 °FPartly sunny.2 mph77%29.95 "HgN/A
8:20 am61 °FPartly sunny.5 mph72%29.95 "HgN/A
Weather by CustomWeather, © 2017

See weather overviewHow to use our weather pages